AirNav   Air Wisconsin Up To $57,000 Bonus
 
 1437 users online  

2XA0 Foard County Airport
Crowell, Texas, USA

GOING TO CROWELL?


FAA INFORMATION EFFECTIVE 10 OCTOBER 2019

Location

FAA Identifier: 2XA0
Lat/Long: 33-58-45.3030N 099-42-46.3350W
33-58.755050N 099-42.772250W
33.9792508,-99.7128708
(estimated)
Elevation: 1479 ft. / 450.8 m (surveyed)
Variation: 08E (1985)
From city: 1 mile E of CROWELL, TX
Time zone: UTC -5 (UTC -6 during Standard Time)
Zip code: 79227

Airport Operations

Airport use: Private use. Permission required prior to landing
Activation date: 10/1946
Control tower: no
ARTCC: FORT WORTH CENTER
FSS: FORT WORTH FLIGHT SERVICE STATION
Attendance: UNATNDD
Wind indicator: yes
Segmented circle: yes
Beacon: white-green (lighted land airport)
ROTG BCN OTS INDEFLY. Operates sunset to sunrise.

Nearby radio navigation aids

VOR radial/distance  VOR name  Freq  Var
CDSr119/36.9CHILDRESS VORTAC117.6010E

Airport Services

Parking: tiedowns
Airframe service: NONE
Powerplant service: NONE
Bottled oxygen: NONE
Bulk oxygen: NONE

Runway Information

Runway 17/35

Dimensions: 3200 x 39 ft. / 975 x 12 m
Surface: asphalt, in poor condition
RY PAVEMENT HAS GRASS ENCROACHMENT.
Weight bearing capacity: 
Single wheel: 8.0
Runway edge lights: medium intensity
MIRL OTS INDEFLY.
Runway edge markings: RY MARKINGS FADED.
RUNWAY 17  RUNWAY 35
Traffic pattern: leftleft
Markings: basic, in poor conditionbasic, in poor condition
Obstructions: 15 ft. road, 490 ft. from runway, 19:1 slope to clearnone
+10 FT TREE 55 FT LEFT 135 FT SOUTH OF THLD.

Airport Ownership and Management from official FAA records

Ownership: Publicly-owned
Owner: FOARD COUNTY
COUNTY COURTHOUSE, PO BOX 660
CROWELL, TX 79227
Phone 940-684-1424
Manager: MARK CHRISTOPHER
COUNTY COURTHOUSE, PO BOX 660
CROWELL, TX 79227
Phone 940-684-1424

Airport Operational Statistics

Aircraft operations: avg 42/month *
100% transient general aviation
* for 12-month period ending 17 February 2004

Additional Remarks

ARPT CLSD NIGHTS.
FOR CD CTC FORT WORTH ARTCC AT 817-858-7584.

Instrument Procedures

There are no published instrument procedures at 2XA0.

Some nearby airports with instrument procedures:

F05 - Wilbarger County Airport (26 nm NE)
3F6 - Dan E Richards Municipal Airport (28 nm W)
60F - Seymour Municipal Airport (30 nm SE)
KCDS - Childress Municipal Airport (39 nm NW)
KFDR - Frederick Regional Airport (43 nm NE)
 
Loc | Ops | Rwys | IFR | FBO | Links
Com | Nav | Svcs | Stats | Notes

AirBoss

 
Area around 2XA0 (Foard County Airport)
 
Road maps at: MapQuest Bing Google
 
Aerial photo
No photo
 
Sectional chart

 
Airport distance calculator
Flying to Foard County Airport? Find the distance to fly.

From to 2XA0

Sunrise and sunset
Times for 16-Oct-2019
 Local
(UTC-5)
 Zulu
(UTC)
Morning civil twilight07:2112:21
Sunrise07:4612:46
Sunset19:0300:03
Evening civil twilight19:2800:28

Current date and time
Zulu (UTC)  16-Oct-2019 14:48:13
Local (UTC-5)  16-Oct-2019 09:48:13
 
METAR
KF05 
26nm NE 
161435Z AUTO 02009G14KT 10SM CLR 12/01 A3029 RMK AO1 T01180011
KCDS 
39nm NW 
161353Z AUTO 36004KT 10SM CLR 08/01 A3029 RMK AO2 SLP250 T00830006
KFDR 
43nm NE 
161353Z AUTO 36009KT 10SM CLR 11/01 A3024 RMK AO2 SLP233 T01060011
KLTS 
47nm NE 
161356Z 35006KT 10SM CLR 09/M01 A3027 RMK AO2A RWY35R SLP248 T00901009 $
KAXS 
47nm NE 
161435Z AUTO 01005KT 10SM CLR 10/01 A3030 RMK AO2 T01000014
TAF
KCDS 
39nm NW 
161120Z 1612/1712 34005KT P6SM SKC
KLTS 
47nm NE 
160900Z 1609/1715 02006KT 9999 SKC QNH3019INS BECMG 1622/1623 17006KT 9999 SKC QNH3002INS BECMG 1714/1715 20012G17KT 9999 SKC QNH3001INS TX20/1622Z TN07/1613Z
NOTAMs
Click for the latest NOTAMs
NOTAMs are issued by the DoD/FAA and will open in a separate window not controlled by AirNav.

 

 
 

Would you like to see your business listed on this page?

 If your business provides an interesting product or service to pilots, flight crews, aircraft, or users of the Foard County Airport, you should consider listing it here.  To start the listing process, click on the button below
 
Add a business
 

Other Pages about Foard County Airport

Update a link
 
Copyright © AirNav, LLC. All rights reserved. Privacy Policy  Contact